Location: Newark
(40.3500°N, 15.2333°E)
Time: 13:17:00
(UTC+00:00)

Altair - Visible Passes

Search period start: 17 January 2021 00:00
Search period end: 27 January 2021 00:00
Orbit: 1501 x 1682 km, 47.2° (Epoch: 16 January)

Date Brightness Start Highest point End Pass type
(mag) Time Alt. Az. Time Alt. Az. Time Alt. Az.
17 Jan 9.3 03:53:02 10° S 04:01:04 28° SE 04:09:11 10° ENE visible
18 Jan 9.3 03:28:19 10° S 03:35:59 26° SE 03:43:45 10° ENE visible
18 Jan 7.9 05:29:39 10° SW 05:39:42 76° SE 05:49:51 10° ENE visible
19 Jan 9.4 03:03:40 10° S 03:10:55 23° SE 03:18:14 10° E visible
19 Jan 8.0 05:04:31 10° SW 05:14:30 71° SE 05:24:37 10° ENE visible
20 Jan 9.4 02:39:07 10° SSE 02:45:52 21° SE 02:52:40 10° E visible
20 Jan 8.0 04:39:25 10° SW 04:49:19 67° SE 04:59:22 10° ENE visible
21 Jan 9.5 02:14:49 10° SSE 02:20:48 18° ESE 02:27:02 10° E visible
21 Jan 8.0 04:14:20 10° SW 04:24:08 63° SE 04:34:07 10° ENE visible
22 Jan 9.5 01:52:29 14° SE 01:55:46 16° ESE 02:01:17 10° E visible
22 Jan 8.1 03:50:37 15° SSW 03:58:58 58° SE 04:08:51 10° ENE visible
23 Jan 9.5 01:29:49 14° SE 01:30:44 14° ESE 01:35:21 10° E visible
23 Jan 8.1 03:27:55 26° SSW 03:33:49 54° SE 03:43:35 10° ENE visible
23 Jan 7.7 05:28:30 10° WSW 05:38:36 73° NNW 05:48:48 10° ENE visible
24 Jan 9.7 01:06:55 12° ESE 01:06:55 12° ESE 01:09:06 10° E visible
24 Jan 8.2 03:05:00 36° S 03:08:40 50° SE 03:18:18 10° ENE visible
24 Jan 7.7 05:03:14 10° WSW 05:13:19 76° NNW 05:23:33 10° ENE visible
25 Jan 8.2 02:41:53 43° SSE 02:43:32 47° SE 02:53:00 10° ENE visible
25 Jan 7.6 04:39:57 18° WSW 04:48:03 79° NNW 04:58:18 10° ENE visible
26 Jan 8.3 02:18:36 43° SE 02:18:36 43° SE 02:27:43 10° ENE visible
26 Jan 7.6 04:16:40 28° WSW 04:22:48 82° NNW 04:33:03 10° ENE visible
